www.pogodaiklimat.ru

Погода и климат >> Архив погоды >> Мали >> Каес


ПОГОДА в Каесе

  • Прогноз погоды в Каесе
  • Монитор погоды в Каесе

АРХИВ ПОГОДЫ в Каесе

Время (UTC), дата Ветер
(напр.,м/с)
 
Видим.   Явления Облачность Т
(С)
Тd
(С)
f
(%)
Тe
(С)
Тes
(С)
Комфортность P
(гПа)
Po
(гПа)
Тmin
(С)
Tmax
(С)
R
(мм)
R24
(мм)
S
(см)
03 9.09 ЮВ 1 10 км 9/3 900 м
[Sc Ac lent Ci sp]
+26.2 +25.1 94 +38 +38 очень
душно
1012.7 1006.3
06 9.09 Ю 2 10 км в посл. час гроза 9/3 900 м
[Cb cap Ac lent Ci sp]
+25.2 +23.5 90 +34 +34 очень
душно
1013.8 1007.4 +25.0
09 9.09 ЮВ 1 10 км 8/1 900 м
[Sc Ac As Ci sp]
+27.5 +24.2 82 +38 +43 очень
душно
1014.5 1008.1
15 9.09 ЮВ 3 10 км 8/5 900 м
[Sc Ci sp]
+33.5 +25.0 61 +47 +52 опасность
перегрева
1011.2 1004.9
18 9.09 ЮВ 3 10 км 6/3 900 м
[Sc Ci sp]
+32.9 +24.8 63 +46 +47 опасность
перегрева
1010.5 1004.2 +34.0
21 9.09 Ю 2 10 км зарница 6/1 900 м
[Cb cap Ac lent Ci sp]
+30.5 +26.1 77 +46 +46 опасность
перегрева
1013.1 1006.7
00 10.09 Ю 2 10 км зарница 8/3 900 м
[Cb cap Ci sp]
+29.0 +26.8 88 +45 +45 опасность
перегрева
1013.1 1006.8
03 10.09 штиль 0 10 км зарница 8/3 900 м
[Cb cap Ci sp]
+27.5 +25.8 90 +41 +41 опасность
перегрева
1012.5 1006.2
06 10.09 Ю 1 10 км 9/1 900 м
[Sc Ac lent Ci sp]
+27.0 +24.7 87 +38 +38 очень
душно
1013.1 1006.8 +27.0
09 10.09 СЗ 2 10 км 8/3 900 м
[Sc Ac lent Ci sp]
+28.8 +25.1 80 +42 +45 опасность
перегрева
1014.4 1008.0
12 10.09 С 2 10 км слаб. дождь 10/3 900 м
[Sc Ac As]
+30.3 +25.7 76 +45 +49 опасность
перегрева
1014.1 1007.7 0.0
15 10.09 В 4 10 км {дождь} 8/3 900 м
[Sc Ac trans Ci sp]
+33.0 +23.0 56 +43 +48 опасность
перегрева
1010.8 1004.5
18 10.09 ЮВ 2 10 км {дождь} 6/1 900 м
[Sc Ci sp]
+33.0 +23.6 58 +44 +45 опасность
перегрева
1009.4 1003.1 +34.0 0.0
21 10.09 Ю 1 10 км 5/1 900 м
[Sc Ci sp]
+29.4 +25.2 78 +43 +43 опасность
перегрева
1011.9 1005.5
00 11.09 ЮВ 2 10 км 6/1 900 м
[Sc Ci sp]
+28.2 +24.2 79 +39 +39 очень
душно
1012.7 1006.3
03 11.09 ЮЗ 2 10 км 6/1 900 м
[Sc Ci sp]
+27.0 +24.9 88 +39 +39 очень
душно
1010.9 1004.6
06 11.09 З 3 10 км 8/1 900 м
[Sc Ac lent Ci sp]
+26.0 +24.3 90 +36 +36 очень
душно
1011.5 1005.2 +26.0 0.0
09 11.09 Ю 2 10 км 5/1 900 м
[Sc Ci sp]
+28.2 +22.4 71 +37 +42 очень
душно
1013.7 1007.3
12 11.09 Ю 1 10 км 5/3 900 м
[Sc Ci sp]
+32.0 +23.4 60 +43 +58 опасность
перегрева
1012.9 1006.6
15 11.09 СЗ 2 10 км 5/1 900 м
[Sc Ci sp]
+34.6 +24.8 57 +48 +60 опасность
перегрева
1009.9 1003.6
18 11.09 СВ 3 10 км 5/1 900 м
[Sc Ci sp]
+34.0 +24.6 58 +47 +47 опасность
перегрева
1009.1 1002.8 +35.4
21 11.09 Ю 1 10 км 5/1 900 м
[Sc Ac lent Ci sp]
+30.0 +25.8 78 +45 +45 опасность
перегрева
1010.1 1003.8
00 12.09 Ю 3 10 км 6/1 900 м
[Sc Ci sp]
+29.8 +24.5 73 +42 +42 опасность
перегрева
1010.8 1004.5
03 12.09 ЮЗ 2 10 км 6/1 900 м
[Sc Ci sp]
+27.8 +24.5 82 +39 +39 очень
душно
1009.8 1006.5
06 12.09 З 3 10 км 8/3 900 м
[Sc Ac lent Ci sp]
+26.6 +24.8 90 +38 +38 очень
душно
1010.3 1004.0 +26.6
09 12.09 ЮЗ 4 10 км 6/1 900 м
[Sc Ci sp]
+29.8 +25.9 80 +45 +48 опасность
перегрева
1012.4 1006.1
12 12.09 З 4 10 км 8/5 900 м
[Sc Ci sp]
+32.6 +26.0 68 +48 +54 опасность
перегрева
1012.9 1006.6
15 12.09 СВ 3 4000 м гроза, ливневой дождь 10/6 750 м
[Cb cap Ac As]
+23.7 +23.4 98 +32 +33 очень
душно
1012.5 1006.1
03 15.09 З 2 10 км 6/1 900 м
[Sc Ci sp]
+27.2 +25.9 93 +41 +41 опасность
перегрева
1011.1 1004.8
09 15.09 Ю 2 10 км 9/1 900 м
[Sc Ac As Ci sp]
+29.5 +25.7 80 +44 +47 опасность
перегрева
1013.9 1007.5
12 15.09 З 2 10 км 9/1 900 м
[Sc Ci sp]
+32.7 +26.2 69 +49 +64 опасность
перегрева
1012.2 1005.9
15 15.09 ЮЗ 2 10 км 9/3 900 м
[Cu med, cong Ci sp]
+35.5 +26.2 59 +52 +60 опасность
перегрева
1009.9 1003.6
18 15.09 СЗ 3 10 км 9/3 900 м
[Cu hum Ci sp]
+34.4 +26.0 62 +50 +51 опасность
перегрева
1009.5 1003.2 +36.5
21 15.09 З 3 10 км 8/3 900 м
[Sc Ci sp]
+30.4 +25.6 76 +45 +45 опасность
перегрева
1010.3 1004.5

 

Местоположение метеостанции Каес (Мали): широта 14.43 долгота -11.43 высота над уровнем моря 47 м.

В архиве по умолчанию представлена погода в Каесе за последнюю неделю. Архивные данные за месяц целиком и за предыдущие месяцы, начиная с января 2011 года, Вы можете получить, выбрав интересующий диапазон дат из раскрывающегося списка и нажав кнопку "Ввод!".


*Определитесь, кто Вы:
робот инопланетянин человек

Внимание! Время в таблицах - всемирное. Для получения местного времени необходимо прибавить поправку, которая равна 0 ч.

Смотрите также архив погоды в соседних городах и на ближайших метеорологических станциях:

Погода в Йелимане (Мали) (121 км)
Погода в Кеньебе (Мали) (177 км)
Погода в Фатото (Гамбия) (221 км)
Погода в Кедугу (Сенегал) (223 км)
Погода в Матаме (Сенегал) (238 км)
Погода в Ниоро-Дю-Сахель (Мали) (241 км)
Погода в Киффе (Мавритания) (245 км)
Погода в Тамбакунде (Сенегал) (254 км)
Погода в Ките (Мали) (260 км)
Погода в Каэди (Мавритания) (294 км)

Пояснения к столбцам:

Ветер - указаны скорость ветра в м/с - средняя за 10 мин, порывы в срок и между сроками (в фигурных скобках) и направление, откуда дует ветер: С - северный, СВ - северо-восточный, В - восточный, ЮВ - юго-восточный, Ю - южный, ЮЗ - юго-западный, З - западный, СЗ - северо-западный.
Видимость - горизонтальная дальность видимости в метрах или километрах. При видимости от 1 до 10 км при отсутствии осадков обычно наблюдается дымка, при ухудшении видимости до 1 км и менее - туман. В сухую погоду видимость может ухудшаться дымом, пылью или мглою.
Явления - указаны атмосферные явления, наблюдавшиеся в срок или в последний час перед сроком; фигурными скобками обозначены явления, наблюдавшиеся между сроками (за 1-3 часа до срока); квадратными скобками обозначены град или гололедные отложения с указанием их диаметра в мм.
Облачность - указаны через наклонную черту общая и нижняя облачность в баллах и высота нижней границы облаков в метрах; квадратными скобками обозначены формы облаков: Ci - перистые, Cs - перисто-слоистые, Cc - перисто-кучевые, Ac - высококучевые, As - высокослоистые, Sc - слоисто-кучевые, Ns - слоисто-дождевые, Cu - кучевые, Cb - кучево-дождевые. Подробнее классификацию облаков см. в Атласе облаков (PDF).
T - Температура воздуха - температура, измеренная на высоте 2 м над землей.
Td - Температура точки росы - температура, при понижении до которой содержащийся в воздухе водяной пар достигнет насыщения.
f - Относительная влажность воздуха - влажноcть воздуха, измеренная на высоте 2 м над землей.
Te - Эффективная температура - температура, которую ощущает одетый по сезону человек в тени. Характеристика душности погоды. При расчете учитывается влияние влажности воздуха и скорости ветра на теплоощущения человека.
Tes - Эффективная температура на солнце - температура, которую ощущает человек, с поправкой на солнечный нагрев. Характеристика знойности погоды. Зависит от высоты солнца над горизонтом, облачности и скорости ветра. Ночью, в пасмурную погоду, а также при ветре 12 м/с и более поправка равна нулю.
P - Атмосферное давление - приведенное к уровню моря атмосферное давление.
Po - Атмосферное давление - измеренное на уровне метеостанции атмосферное давление.
Tmin - Минимальная температура - минимум температуры воздуха на высоте 2 м над землей.
Tmax - Максимальная температура - максимум температуры воздуха на высоте 2 м над землей.
R - Количество осадков - Количество выпавших осадков за период времени, мм. При наведении курсора мыши на число - период времени, за который выпало указанное количество осадков.
R24 - Количество осадков - Количество выпавших осадков за 24 часа, мм.
S - Снежный покров - Высота снежного покрова, см. При наведении курсора мыши на число - состояние снежного покрова и степень покрытия местности в баллах.